Regional Weather Roundup
Issued by NWS

Home | Current Version | Previous Version | Text Only | Print | Product List | Glossary On
Versions: 1 2 3 4 5 6 7 8 9 10 11 12 13 14 15 16 17 18 19 20 21 22 23 24 25 26 27 28 29 30 31 32 33 34 35 36 37 38 39 40 41 42 43 44 45 46 47 48 49 50
048
ASUS43 KLMK 200802
RWRKY
KENTUCKY REGIONAL WEATHER ROUNDUP
NATIONAL WEATHER SERVICE LOUISVILLE KY
300 AM EST FRI JAN 20 2017

NOTE "FAIR" INDICATES FEW OR NO CLOUDS BELOW 12,000 FEET
WITH NO SIGNIFICANT WEATHER AND/OR OBSTRUCTIONS TO VISIBILITY.

KYZ001>023-026-027-061>063-070>075-200900-
WESTERN AND SOUTH CENTRAL KENTUCKY

CITY           SKY/WX    TMP DP  RH WIND       PRES   REMARKS
PADUCAH        CLOUDY    56  52  86 SW15G22   29.66R
HENDERSON      CLOUDY    55  54  94 SW8       29.63R
OWENSBORO      CLOUDY    56  55  97 SW8       29.63S
HOPKINSVILLE   CLOUDY    55  55 100 SW10      29.68R
BOWLING GREEN  CLOUDY    58  55  90 SW6       29.68R
GLASGOW        NOT AVBL
$$

KYZ024-025-028>034-038-045-046-053-200900-
NORTH CENTRAL KENTUCKY

CITY           SKY/WX    TMP DP  RH WIND       PRES   REMARKS
LOUISVILLE/SDF RAIN      53  50  89 W3        29.62R FOG
LOUISVILLE/LOU LGT RAIN  53  51  93 SW7       29.63R
FORT KNOX      DRIZZLE   55  55 100 SW14      29.62R
$$

KYZ035>037-039>044-047>052-055>060-089>105-200900-
NORTHEAST KENTUCKY

CITY           SKY/WX    TMP DP  RH WIND       PRES   REMARKS
LEXINGTON      LGT RAIN  54  51  90 S14       29.64S
COVINGTON      RAIN      49  49 100 SE12      29.59F FOG
FRANKFORT      LGT RAIN  55  51  86 S10       29.61S
$$

KYZ054-064>069-076>088-106>120-200900-
SOUTHEAST KENTUCKY

CITY           SKY/WX    TMP DP  RH WIND       PRES   REMARKS
JACKSON        LGT RAIN  54  46  74 SE6       29.68F
LONDON         RAIN      53  48  83 S5        29.68F
SOMERSET       NOT AVBL
MIDDLESBORO    LGT RAIN  50  50 100 CALM      29.73S
MONTICELLO     LGT RAIN  56  54  93 SE5       29.71S
$$





USA.gov is the U.S. government's official web portal to all federal, state and local government web resources and services.